SL-14 DEB, 45653

Orbit data source: Space-Track

SL-14 DEB, 45653 is space debris in LEO originally from a launch on Thu, 15 Aug 1991 UTC launched from the Plesetsk Missile And Space Complex (PKMTR). Debris objects in space refer to the collection of defunct objects orbiting the Earth. Examples of debris include non-operational satellites, rocket bodies, and fragments generated from explosions, collisions, or faulty payload assembly.

Loading next visibility...
Identifier
45653, 1991-056CX
Orbit
LEO
Country
Flag of CISCIS
Related business
Manufacturer
Unknown
Mission
Spacecraft
Bus & Motor
Unknown
Mass
Unknown
Launch date (UTC)
1991-08-15 (34 years ago)
Launch vehicle
Unknown
Launch site
Plesetsk Missile And Space Complex (PKMTR)
Object type
Payload
Rocket body
Debris
Shape & HBR
Unknown
Radar Cross Section
Small (<0.1 m²)

Expand to show TLE details & history
Last TLE update: 3 days ago

TLE from 3 days ago
0 SL-14 DEB
1 45653U 91056CX  25259.07850996  .00000939  00000-0  18101-2 0  9995
2 45653  82.5546 294.4258 0065366 266.9022  92.4630 13.35270145267158
Epoch: 2025-09-16T01:53Z
TLE epoch observation values (Epoch: 2025-09-16T01:53:03.26Z)
Latitude
-0.00002°
Longitude
-89.11176°
Altitude
1,132.212 km
Speed
7.285 km/s
True Right ascension
19h 37m 42s
True Declination
0° 00' 00"
Sunlit
Object was in daylight at epoch
Visualization orbit readout
Latitude
Unknown
Longitude
Unknown
Altitude
Unknown
Speed
Unknown
Apparent Right ascension
Unknown
Apparent Declination
Unknown
Sunlit
N/A
Visualization observer readout
Local Sidereal Time
17:29:06
Azimuth
Unknown
Elevation
Unknown
Doppler factor
Unknown
Orbital elements
Apogee altitude
1,173.209 km
Perigee altitude
1,075.13 km
Semi-major axis
7,502.306 km
Eccentricity
0.00654
Inclination
82.5546°
RAAN
294.4258°
Arg. of periapsis
266.9022°
True anomaly
93.21106°
Mean anomaly
92.463°
Eccentric anomaly
92.83706°
Mean motion
3.34003 °/min
Orbital period
107.78 mins
BSTAR
0.0018101
Loading maneuver chart data...
Computing Atmospheric mass density...
Loading historical data...
Loading historical data...
Loading historical data...
Loading historical data...
Loading historical data...
Loading historical data...
Loading historical data...

Documentation

Showing up to 5 results
|